Regional Weather Roundup
Issued by NWS

Home | Current Version | Previous Version | Text Only | Print | Product List | Glossary On
Versions: 1 2 3 4 5 6 7 8 9 10 11 12 13 14 15 16 17 18 19 20 21 22 23 24 25 26 27 28 29 30 31 32 33 34 35 36 37 38 39 40 41 42 43 44 45 46 47 48 49 50
000
ASUS43 KMPX 040210
RWRMN
WEATHER ROUNDUP FOR MINNESOTA
NATIONAL WEATHER SERVICE TWIN CITIES/CHANHASSEN MN
900 PM CDT SUN MAY 03 2015


NOTE: "FAIR" INDICATES FEW OR NO CLOUDS BELOW 12,000 FEET WITH NO
SIGNIFICANT WEATHER AND/OR OBSTRUCTIONS TO VISIBILITY. N/A MEANS
CURRENT SKY AND/OR WEATHER CONDITIONS ARE NOT AVAILABLE.

MNZ060>063-068>070-040300-
   Twin Cities Metro

CITY           SKY/WX    TMP DP  RH WIND       PRES   REMARKS
TWIN CITIES    MOCLDY    63  46  54 N9        29.86R
ST PAUL        CLOUDY    63  48  58 CALM      29.87R
CRYSTAL        MOCLDY    65  43  44 E6        29.86R
LAKEVILLE      CLOUDY    61  52  72 NE10      29.83F
EDEN PRAIRIE   MOCLDY    64  43  46 NE10      29.84R
SOUTH ST PAUL  MOCLDY    62  49  61 N3        29.87R
LAKE ELMO      MOCLDY    59  52  77 N3        29.88R
$$
MNZ001>005-007-008-013>017-022>024-027-028-040300-
   Northwest Minnesota

CITY           SKY/WX    TMP DP  RH WIND       PRES   REMARKS
BEMIDJI        PTCLDY    54  25  33 NW8       29.92R
HALLOCK        CLEAR     55  28  35 NE7       29.96R
ROSEAU         CLEAR     52  34  50 NW7       29.96R
WARROAD        CLEAR     52  37  58 NW6       29.96R
THIEF RVR FALL PTCLDY    57  30  35 N8        29.96R
CROOKSTON      PTCLDY    55  25  30 NW7       29.96R
DETROIT LAKES  CLEAR     59  25  27 N10       29.95R
MOORHEAD       PTCLDY    57  23  26 NW9       29.95R
PARK RAPIDS    CLEAR     56  25  30 NW7       29.91R
MAHNOMEN       FAIR      55  23  28 NW9       29.94R
$$
MNZ006-009>011-018-025>026-040300-
   North Central Minnesota

CITY           SKY/WX    TMP DP  RH WIND       PRES   REMARKS
BAUDETTE       CLEAR     52  36  54 N10       29.95R
FLAG ISLAND    CLEAR     54  37  54 N13       29.95R
INTL FALLS     CLEAR     54  33  45 NW13      29.91R
WASKISH        CLEAR     57  36  44 NW8       29.93R
BIG FORK       PTCLDY    59  25  27 NW7       29.90R
LONGVILLE      CLEAR     55  30  38 CALM      29.90S
GRAND RAPIDS   CLEAR     55  27  33 NW7       29.90R
CRANE LAKE     CLEAR     50  32  50 CALM      29.90R
COOK           CLEAR     54  28  37 CALM      29.88R
WALKER         FAIR      59  24  26 NW3       29.91R
$$
MNZ012-019>021-037-040300-
   Northeast Minnesota

CITY           SKY/WX    TMP DP  RH WIND       PRES   REMARKS
DULUTH         PTCLDY    59  33  37 NW8       29.86R
ELY            CLEAR     55  28  35 NW5       29.87R
HIBBING        CLEAR     53  26  35 NW8       29.88R
EVELETH        CLEAR     57  27  30 NW6       29.89R
DULUTH HARBOR  PTCLDY    55  50  82 S3        29.86R
TWO HARBORS    CLEAR     63  39  42 NW3       29.84R
SILVER BAY     PTCLDY    57  36  44 CALM      29.84R
GRAND MARAIS     N/A     53  41  63 W3        29.84R
G MARAIS ARPRT MOCLDY    54  28  37 NW5       29.87R
$$
MNZ029>031-032-039>041-046>048-054>057-064-040300-
   West Central Minnesota

CITY           SKY/WX    TMP DP  RH WIND       PRES   REMARKS
FERGUS FALLS   PTCLDY    59  27  29 NW14      29.93S
WHEATON        PTCLDY    57  27  30 NW7       29.95R
MORRIS         PTCLDY    57  28  33 N8        29.91S
ALEXANDRIA     CLEAR     57  30  35 N8        29.92S
ELBOW LAKE     FAIR      59  37  43 NW6       29.92S
WADENA         CLEAR     54  28  37 NW6       29.91R
GLENWOOD       CLEAR     57  28  33 NW12      29.91R
APPLETON       CLEAR     61  27  27 N9        29.91R
BENSON         CLEAR     59  23  25 N9        29.90R
ORTONVILLE     CLEAR     57  28  33 N6        29.92R
MADISON        CLEAR     61  25  25 N12       29.92R
WILLMAR        FAIR      63  34  34 N12       29.90R
$$
MNZ033>034-036-042>043-049>051-058-059-040300-
   Central Minnesota

CITY           SKY/WX    TMP DP  RH WIND       PRES   REMARKS
ST CLOUD       CLEAR     59  41  51 CALM      29.88R
SAUK CENTRE    FAIR      58  32  36 NW12      29.90R
PAYNESVILLE    CLEAR     58  32  37 NW7       29.89R
AITKIN         CLEAR     55  25  30 CALM      29.88R
PINE RIVER     CLEAR     55  34  44 CALM      29.94R
BRAINERD       CLEAR     56  33  42 NE3       29.90R
STAPLES        CLEAR     54  34  47 NW7       29.90S
LONG PRAIRIE   FAIR      57  28  33 NW8       29.91R
LITTLE FALLS   CLEAR     61  32  33 NW5       29.89R
LITCHFIELD     PTCLDY    57  45  62 N5        29.89R
BUFFALO        PTCLDY    62  44  52 CALM      29.89R
MAPLE LAKE     PTCLDY    59  49  68 CALM      29.89R
$$
MNZ037-044-045-052-053-040300-
   East Central Minnesota

CITY           SKY/WX    TMP DP  RH WIND       PRES   REMARKS
PRINCETON      CLEAR     57  45  62 CALM      29.89R
MORA           CLEAR     57  41  54 CALM      29.89R
CAMBRIDGE      PTCLDY    63  46  55 CALM      29.87R
RUSH CITY      PTCLDY    58  43  58 CALM      29.89R
MOOSE LAKE     PTCLDY    54  46  76 NW3       29.86R
HINCKLEY       FAIR      59  43  55 CALM      29.88R
CLOQUET        CLEAR     57  30  35 NW6       29.87S
MCGREGOR       CLEAR     55  32  41 NW3       29.89R
$$
MNZ071>073-080-081-089-090-097-098-040300-
   Southwest Minnesota

CITY           SKY/WX    TMP DP  RH WIND       PRES   REMARKS
MONTEVIDEO     CLEAR     63  27  25 N15       29.90R
GRANITE FALLS  CLEAR     62  30  29 NW12      29.91R
CANBY          CLEAR     60  27  27 N10       29.93R
MARSHALL       CLEAR     63  28  27 N16       29.90R
REDWOOD FALLS  PTCLDY    64  40  41 N6        29.87R
OLIVIA         CLEAR     59  36  41 N6        29.88R
PIPESTONE      CLEAR     64  34  32 N14G21    29.88R
WORTHINGTON    CLEAR     63  36  36 N13       29.89R
JACKSON        PTCLDY    64  37  36 N14       29.88R
TRACY          CLEAR     64  36  36 N9        29.89R
SLAYTON        CLEAR     63  34  34 N14       29.89R
$$
MNZ065>067-074>077-082>085-091>093-040300-
   South Central Minnesota

CITY           SKY/WX    TMP DP  RH WIND       PRES   REMARKS
MANKATO          N/A    N/A N/A N/A MISG        N/A
NEW ULM        MOCLDY    64  39  39 NE8       29.85R
ST JAMES       CLOUDY    66  39  37 N10       29.88R
FAIRMONT       CLOUDY    66  43  42 NE16      29.86R
GLENCOE        MOCLDY    64  45  48 N6        29.84S
FARIBAULT      CLOUDY    61  52  72 N8        29.83F
OWATONNA       CLOUDY    61  52  72 E14       29.84S
WASECA         CLOUDY    63  48  59 NE15      29.85R
ALBERT LEA     CLOUDY    63  54  72 NE17G28   29.84R
$$
MNZ078>079-086>088-094>096-040300-
   Southeast Minnesota

CITY           SKY/WX    TMP DP  RH WIND       PRES   REMARKS
ROCHESTER      CLOUDY    62  58  86 NW8       29.89R
RED WING       LGT RAIN  61  54  77 NE3       29.86R
STANTON        CLOUDY    60  51  73 NE6       29.82F
DODGE CENTER   CLOUDY    61  54  77 NE9       29.89R
WINONA         TSTM      61  57  88 CALM      29.86R
AUSTIN         CLOUDY    61  57  88 N13       29.90R
PRESTON        TSTM      58  56  92 NW6       29.87R
$$
ABBREVIATIONS USED IN REMARKS
   TC - TEMPERATURES IN CELSIUS
  WCI - WIND CHILL INDEX
   HX - HEAT INDEX
  VSB - VISIBILITY
$$


USA.gov is the U.S. government's official web portal to all federal, state and local government web resources and services.